Wind_Speed
17 15 12 12 12 9 14 11 11 10 9 12 12 12 14 14 12 10 8 8 8 8 8 8 8 7 7 7 7 8 9 11 12 12 13 12 14 14 16 17 20 20 21 20 20 21 23 23 22
14 12 12 17 10 10 10 12 10 8 9 11 11 11 11 12 12 9 8 7 8 7 6 7 8 7 8 8 8 8 10 12 13 15 13 14 14 15 16 17 19 19 21 19 21 23 25 26 26
13 9 15 8 15 12 7 11 9 10 9 9 8 10 9 10 11 8 7 8 5 5 6 7 6 6 7 8 10 10 11 13 14 15 14 15 15 16 16 17 19 20 21 20 22 23 24 27 31
12 13 11 11 11 11 7 9 9 9 7 7 8 9 9 8 10 6 6 5 4 4 6 5 3 4 6 8 9 11 12 14 15 15 16 15 16 18 18 18 20 20 21 21 22 23 21 22 24
11 17 15 15 15 8 5 7 8 7 8 7 9 11 12 9 8 7 5 4 4 6 5 4 2 4 7 8 10 11 13 15 16 17 17 15 17 18 18 18 18 20 20 20 20 20 20 21 21
8 17 19 14 8 8 9 7 8 9 9 10 10 10 10 9 7 6 5 2 4 4 5 5 6 8 10 10 11 11 13 16 16 17 17 16 17 18 18 16 18 19 19 19 18 18 19 18 18
18 19 15 9 6 9 9 8 9 10 7 7 8 8 10 10 7 3 6 4 3 4 7 8 9 9 8 9 11 13 14 15 15 16 16 16 17 18 17 15 16 18 17 16 17 16 18 15 16
20 9 14 11 8 10 9 10 8 7 6 8 8 9 11 11 8 6 7 8 8 7 9 9 12 10 8 10 11 13 13 13 12 13 15 14 15 17 17 14 14 14 12 12 13 13 13 11 12
9 9 6 4 11 8 8 6 5 5 6 8 7 9 11 11 9 10 11 12 5 9 8 13 14 12 9 8 9 11 12 12 10 9 11 11 11 12 14 12 12 10 11 10 10 11 10 9 9
11 4 7 9 7 7 7 5 3 2 4 8 10 10 11 11 11 10 11 13 12 12 9 14 15 15 12 10 8 8 8 9 7 7 8 8 10 7 8 9 10 7 5 9 10 8 7 6 5
11 5 5 4 6 4 4 3 2 1 4 6 6 7 8 9 10 9 10 12 13 13 13 10 13 14 13 11 10 10 10 8 5 8 9 10 8 6 4 9 8 5 1 7 7 8 6 6 7
6 10 7 8 6 3 2 2 2 2 1 3 5 7 7 6 7 8 9 11 11 12 12 11 8 9 10 9 8 9 11 9 8 6 5 4 7 6 9 2 5 6 4 1 4 8 6 7 3
6 14 7 7 5 4 1 1 1 1 1 2 4 5 5 3 4 6 8 10 10 10 10 9 8 8 5 7 7 7 8 6 4 6 4 8 4 5 8 6 8 8 10 9 6 5 3 4 4
8 7 1 2 4 2 1 2 4 4 2 1 2 4 4 3 2 3 5 7 8 7 9 9 8 5 5 6 5 4 6 6 5 5 4 2 0 1 11 2 6 9 4 6 3 3 8 8 4
6 1 2 2 3 6 4 5 5 7 4 1 1 1 3 4 2 1 1 3 5 4 5 7 8 6 5 5 5 2 3 2 2 3 2 3 7 8 12 10 5 14 6 6 9 8 8 6 5
4 8 4 8 2 6 6 3 3 4 8 4 3 2 1 2 2 2 3 2 4 1 2 2 5 6 5 5 6 3 4 3 4 5 8 10 10 13 11 10 10 13 15 11 11 9 8 8 6
5 8 9 3 3 8 4 7 3 5 6 5 3 3 2 2 2 2 4 4 4 5 4 3 2 4 5 5 6 5 7 5 4 6 6 10 13 16 16 15 14 18 16 14 13 14 14 13 11
1 13 4 12 6 1 2 5 10 6 4 5 2 4 4 4 2 2 2 4 5 7 7 7 7 6 6 6 7 8 11 10 10 11 11 14 12 15 15 20 18 18 20 15 17 19 18 14 10
7 13 8 3 2 3 7 8 6 7 8 3 6 3 3 5 6 4 3 4 5 6 8 8 10 9 10 10 10 11 13 14 14 16 15 16 18 20 20 23 22 21 21 20 18 21 22 16 10
8 11 13 6 4 7 13 11 17 4 12 6 8 6 4 6 5 6 5 4 5 5 7 8 9 11 11 12 13 15 15 16 18 18 19 19 21 24 22 26 26 22 19 22 19 21 23 21 18
12 15 2 1 5 10 13 9 13 14 15 15 14 11 4 4 3 5 6 5 5 7 7 9 10 10 11 12 14 16 18 21 20 20 24 24 24 25 27 27 30 27 24 26 29 28 26 27 25
14 12 8 7 10 9 10 12 16 25 20 27 24 19 6 5 4 2 2 3 3 5 7 6 9 12 14 15 18 17 18 23 24 26 26 26 32 27 31 28 30 26 24 27 32 34 34 30 29
12 7 2 4 2 18 16 20 23 23 33 28 15 6 5 6 5 5 4 3 3 3 9 10 10 16 16 17 17 17 18 22 24 27 32 29 29 37 32 32 24 26 28 31 38 37 36 38 36
14 9 9 12 16 23 18 24 16 26 29 10 5 6 16 13 13 10 9 5 2 2 7 9 13 13 18 15 15 19 22 21 24 25 30 28 33 31 35 26 30 27 29 28 40 40 36 40 42
16 25 12 19 23 27 32 27 30 28 34 24 30 27 31 21 15 15 14 18 20 10 10 12 14 17 16 16 16 16 16 22 26 31 36 37 35 36 39 39 36 26 24 31 35 29 31 39 49
9 19 17 16 13 26 28 29 26 25 30 26 19 10 8 9 15 16 18 19 23 26 26 18 19 19 18 19 16 20 21 25 26 32 33 41 42 44 48 37 34 36 39 36 34 30 30 32 29
21 18 18 22 23 21 22 23 25 32 23 23 18 36 22 14 15 15 22 27 28 27 26 33 29 21 18 18 21 26 30 31 32 36 43 45 41 40 41 39 38 30 22 21 23 25 28 25 32
14 11 21 19 26 26 20 19 26 26 22 25 15 18 9 24 27 25 24 29 27 30 33 32 30 23 23 25 31 33 33 29 34 38 41 42 41 40 33 23 23 23 21 23 22 23 26 23 27
16 16 25 22 11 18 17 24 25 26 28 24 29 26 22 23 23 27 28 26 28 30 32 31 29 31 31 33 35 37 38 36 36 39 40 41 41 37 29 23 24 23 22 24 25 26 28 29 26
19 19 19 26 23 26 24 28 28 22 23 25 33 31 16 11 15 21 26 31 33 30 29 32 33 34 36 36 37 40 41 41 44 45 43 42 38 34 31 30 28 28 28 28 30 28 28 27 25
Wind_Direction
138 133 135 148 148 108 93 82 73 69 62 61 56 52 48 49 51 65 77 98 111 122 133 136 134 140 138 151 145 142 129 127 129 124 115 103 98 92 88 88 91 91 91 90 88 79 75 79 81
120 131 160 118 110 82 87 82 87 67 56 62 69 57 49 49 50 64 76 92 115 122 141 152 144 140 151 149 148 141 135 134 135 125 117 109 103 100 97 96 93 94 93 92 85 82 81 85 77
127 135 73 108 108 97 75 80 80 63 58 51 66 57 48 50 55 58 83 107 111 110 119 141 144 140 137 137 141 140 136 134 134 128 123 116 111 101 97 97 97 96 95 90 84 82 78 82 76
128 152 157 109 117 102 95 81 75 59 57 50 61 47 31 38 55 47 81 106 96 133 114 101 103 150 147 141 143 136 138 138 137 131 125 119 109 100 101 100 99 98 93 89 84 79 77 73 70
133 125 139 120 109 95 98 79 60 50 52 57 45 35 17 18 59 47 64 74 78 127 75 50 47 128 145 151 148 143 141 146 139 131 128 121 110 106 106 103 102 99 95 91 88 83 76 69 65
98 118 110 113 86 75 75 67 59 40 53 44 39 22 17 12 48 49 69 63 73 107 59 43 83 96 129 150 149 150 151 146 137 132 132 125 117 114 108 107 106 102 100 97 93 89 83 75 71
116 104 86 102 107 82 61 55 67 56 49 40 27 23 25 20 25 73 96 122 107 99 55 75 87 97 122 133 142 148 150 142 136 139 140 136 126 119 111 109 107 101 100 99 97 92 84 76 75
109 98 104 78 98 80 63 63 48 40 53 46 41 34 35 28 18 38 76 102 101 79 75 92 89 89 119 125 136 141 146 132 137 148 149 143 133 134 131 128 120 112 103 99 101 96 87 78 67
114 128 105 97 87 83 64 52 46 34 42 61 51 45 42 34 28 45 77 113 117 85 90 98 94 88 97 114 132 141 143 139 141 145 153 146 150 152 143 149 140 124 118 104 77 62 65 63 68
88 58 59 36 58 49 56 48 35 26 22 41 29 33 43 41 42 44 48 82 99 97 83 101 96 95 95 101 119 131 140 126 135 140 159 177 184 180 157 136 91 84 91 99 93 83 59 44 24
114 113 55 48 35 63 42 38 40 22 12 21 33 32 37 42 54 52 52 64 78 91 88 90 102 103 102 107 122 125 124 135 138 154 185 188 205 194 151 99 76 46 5 110 125 110 72 43 36
61 73 71 60 41 77 23 357 24 107 106 1 30 31 25 25 57 64 58 63 72 88 104 101 96 103 113 123 130 127 138 139 171 157 164 182 211 135 111 17 132 136 53 202 52 75 23 54 17
119 103 28 71 74 94 53 258 50 285 50 61 36 30 25 26 30 58 56 62 65 76 93 104 96 96 133 142 133 132 136 132 185 130 117 256 295 17 178 145 27 50 5 83 154 91 108 124 52
46 66 148 96 109 106 93 322 304 285 119 50 47 24 18 28 7 32 70 66 67 67 81 95 106 123 142 150 130 145 155 164 155 142 160 227 10 3 290 263 17 281 64 338 12 69 32 13 19
127 19 135 158 114 73 358 315 292 302 299 244 195 32 26 7 356 290 93 107 69 44 77 90 103 120 144 146 138 198 212 173 198 296 345 336 323 318 326 353 332 310 5 297 332 5 350 322 295
202 207 256 15 336 76 41 5 221 266 291 275 273 274 19 13 348 281 205 223 149 156 33 109 121 129 160 177 181 208 248 261 295 298 327 319 318 320 318 315 307 301 312 332 317 325 293 328 288
227 233 240 283 281 54 353 293 269 287 271 259 238 250 279 305 341 330 291 230 199 218 190 248 226 195 184 213 240 233 244 245 264 301 310 308 316 315 305 293 293 289 301 307 291 286 291 295 287
330 298 266 201 17 222 92 12 3 314 1 258 203 267 258 264 289 343 2 293 227 229 214 223 250 264 258 244 254 267 279 283 282 275 277 281 279 275 280 285 283 283 285 284 292 289 283 275 290
161 242 232 238 355 315 2 303 322 313 331 56 76 28 301 289 293 313 330 342 289 254 242 234 244 243 258 265 265 272 274 274 275 274 274 271 275 272 270 273 272 277 287 289 291 281 278 278 272
236 273 260 189 237 116 281 317 273 254 256 185 118 33 52 51 353 324 327 327 318 314 276 258 257 264 260 258 265 271 274 281 285 290 290 290 287 285 282 281 278 270 273 276 276 261 269 275 277
312 335 23 37 249 320 293 332 309 274 267 245 204 158 61 31 16 29 15 7 335 306 296 295 290 280 277 270 265 266 270 271 280 285 287 285 277 274 274 272 278 282 281 282 280 274 273 276 275
348 29 38 47 22 326 270 284 308 309 307 282 245 207 129 356 351 47 341 328 345 330 318 319 314 304 295 281 272 269 274 278 277 277 278 281 282 282 276 275 274 278 281 289 290 289 288 279 280
320 32 22 41 276 277 280 287 297 320 331 320 311 191 253 262 331 348 358 350 34 313 287 291 295 295 303 300 293 286 281 280 284 287 292 296 273 295 274 265 286 291 281 292 294 283 283 283 282
308 289 257 280 293 276 309 309 322 345 326 310 6 223 252 268 283 280 271 265 319 305 316 299 296 300 296 283 295 293 289 286 291 293 293 290 294 291 297 298 290 296 297 319 322 268 274 285 283
273 279 282 296 308 328 335 334 312 330 321 317 282 230 232 174 307 321 304 312 310 306 278 283 289 292 293 300 288 270 285 295 299 303 302 303 302 304 320 304 297 317 317 334 324 323 297 292 274
278 264 268 278 292 298 312 315 318 315 314 317 303 244 132 338 332 318 305 307 305 303 290 290 285 286 293 283 285 292 288 302 299 296 303 302 310 311 309 325 310 315 316 305 311 308 315 311 301
286 262 276 268 264 272 288 295 300 317 320 333 313 306 328 317 286 297 316 310 301 296 286 289 296 301 282 274 286 288 292 295 299 300 297 304 311 315 314 318 320 320 309 308 311 297 296 307 297
295 305 310 303 283 272 282 313 301 305 319 316 316 328 331 313 324 306 303 306 305 301 298 297 299 292 282 282 282 289 290 287 290 293 295 298 305 311 318 315 305 307 305 303 305 289 285 294 290
294 301 291 301 312 306 308 286 298 299 303 311 302 315 308 306 306 303 303 304 302 297 293 292 288 283 284 283 286 289 292 290 292 297 299 301 307 310 309 303 304 292 294 292 277 277 275 274 276
236 246 253 267 262 262 265 280 274 283 292 296 297 304 307 316 308 304 299 295 293 292 289 286 283 282 284 288 288 291 294 293 292 295 299 301 302 302 299 300 296 285 285 281 277 273 271 279 275
Height
5902 5906 5908 5908 5913 5909 5907 5906 5908 5908 5909 5910 5910 5909 5909 5910 5910 5913 5911 5910 5911 5911 5912 5911 5911 5911 5911 5912 5913 5912 5913 5913 5914 5915 5917 5918 5919 5918 5918 5918 5918 5917 5917 5916 5916 5915 5914 5915 5913
5907 5907 5904 5909 5909 5908 5909 5909 5909 5910 5909 5911 5911 5911 5912 5912 5912 5911 5912 5912 5912 5912 5912 5912 5912 5913 5913 5913 5913 5914 5914 5915 5916 5917 5919 5920 5920 5921 5921 5921 5921 5921 5921 5920 5920 5918 5917 5918 5917
5907 5903 5897 5912 5910 5911 5914 5911 5911 5911 5911 5912 5913 5914 5914 5914 5913 5912 5912 5912 5912 5912 5912 5913 5913 5914 5914 5914 5915 5915 5916 5917 5918 5920 5921 5921 5922 5923 5923 5924 5924 5924 5924 5924 5923 5922 5921 5920 5920
5909 5909 5909 5914 5914 5914 5915 5913 5913 5914 5914 5915 5916 5916 5915 5915 5914 5912 5912 5912 5911 5912 5912 5913 5913 5914 5915 5915 5916 5917 5918 5919 5920 5922 5923 5923 5925 5925 5926 5926 5927 5927 5927 5927 5926 5925 5923 5922 5921
5914 5912 5898 5916 5916 5916 5916 5914 5914 5915 5916 5917 5918 5918 5916 5915 5915 5913 5913 5913 5912 5912 5912 5912 5912 5913 5915 5916 5917 5918 5919 5921 5922 5923 5924 5925 5926 5927 5927 5928 5929 5928 5928 5929 5929 5928 5925 5924 5923
5916 5913 5916 5918 5918 5918 5916 5916 5917 5917 5918 5919 5919 5918 5918 5916 5916 5915 5914 5913 5913 5913 5913 5912 5913 5913 5915 5916 5918 5920 5921 5922 5925 5926 5926 5927 5927 5929 5929 5930 5931 5930 5930 5930 5931 5930 5928 5926 5925
5917 5916 5918 5920 5920 5919 5917 5918 5918 5918 5919 5920 5920 5920 5919 5916 5916 5916 5916 5914 5914 5914 5914 5914 5914 5915 5916 5918 5920 5921 5923 5925 5927 5928 5928 5928 5928 5931 5932 5931 5932 5933 5933 5934 5933 5932 5932 5928 5930
5912 5919 5922 5922 5921 5919 5919 5920 5920 5921 5922 5923 5922 5921 5920 5917 5916 5915 5916 5915 5915 5915 5915 5916 5916 5918 5919 5920 5922 5925 5926 5929 5929 5930 5930 5930 5932 5931 5929 5931 5932 5933 5935 5935 5934 5932 5933 5932 5932
5922 5923 5923 5921 5922 5921 5922 5924 5923 5924 5923 5924 5924 5922 5921 5919 5918 5917 5918 5917 5917 5917 5918 5918 5919 5920 5923 5925 5926 5926 5928 5929 5931 5933 5934 5935 5934 5932 5932 5932 5933 5934 5933 5935 5938 5939 5936 5934 5935
5922 5925 5924 5924 5924 5923 5925 5926 5925 5926 5925 5926 5924 5924 5923 5921 5920 5919 5917 5919 5919 5920 5920 5920 5922 5923 5925 5927 5928 5929 5931 5934 5934 5936 5938 5937 5935 5937 5936 5934 5940 5942 5941 5937 5937 5937 5938 5937 5935
5923 5923 5926 5926 5926 5926 5926 5926 5927 5927 5927 5927 5927 5926 5924 5923 5923 5922 5922 5920 5920 5921 5923 5924 5925 5926 5928 5928 5929 5931 5935 5934 5935 5934 5932 5933 5935 5935 5940 5942 5942 5945 5941 5941 5938 5936 5935 5936 5936
5924 5927 5926 5926 5927 5927 5927 5926 5927 5927 5927 5927 5926 5926 5926 5925 5925 5925 5925 5923 5923 5925 5926 5928 5929 5930 5931 5930 5931 5934 5935 5936 5933 5938 5936 5942 5936 5940 5944 5943 5936 5936 5939 5943 5939 5938 5939 5937 5939
5926 5926 5926 5926 5927 5928 5928 5928 5928 5926 5927 5927 5926 5927 5927 5927 5926 5926 5926 5926 5926 5926 5927 5929 5930 5931 5933 5934 5934 5937 5938 5940 5936 5940 5939 5941 5943 5940 5940 5935 5934 5941 5943 5945 5943 5940 5943 5938 5936
5925 5926 5927 5928 5929 5929 5929 5930 5930 5927 5928 5927 5927 5927 5927 5927 5927 5926 5927 5929 5930 5929 5929 5930 5932 5933 5934 5937 5938 5939 5939 5941 5940 5945 5945 5943 5941 5939 5935 5907 5934 5937 5935 5946 5947 5944 5940 5944 5939
5924 5928 5927 5929 5929 5930 5929 5930 5930 5928 5927 5927 5927 5926 5927 5928 5928 5928 5929 5930 5931 5932 5932 5932 5934 5935 5935 5938 5940 5941 5943 5945 5944 5943 5942 5942 5942 5945 5937 5936 5940 5935 5937 5941 5940 5939 5938 5940 5938
5926 5927 5928 5930 5929 5928 5928 5927 5929 5928 5928 5927 5927 5927 5926 5927 5928 5928 5930 5931 5932 5932 5934 5935 5935 5936 5937 5938 5940 5941 5940 5942 5946 5947 5945 5945 5945 5943 5941 5941 5939 5937 5935 5941 5941 5939 5939 5939 5941
5927 5929 5928 5928 5930 5926 5929 5928 5929 5928 5930 5928 5927 5927 5927 5927 5928 5928 5930 5931 5933 5932 5934 5936 5937 5937 5938 5938 5939 5941 5941 5941 5939 5940 5942 5943 5942 5939 5938 5939 5942 5940 5942 5942 5941 5939 5939 5937 5938
5927 5926 5924 5923 5926 5926 5928 5930 5931 5932 5931 5929 5927 5927 5927 5927 5927 5928 5929 5931 5932 5933 5934 5935 5937 5939 5939 5939 5939 5939 5939 5939 5939 5939 5940 5941 5942 5940 5940 5937 5938 5940 5940 5941 5941 5939 5937 5937 5937
5928 5925 5925 5923 5924 5926 5926 5929 5930 5929 5930 5929 5928 5929 5928 5929 5927 5928 5929 5930 5931 5932 5933 5936 5936 5936 5938 5938 5939 5939 5939 5939 5940 5941 5942 5941 5940 5939 5937 5935 5936 5938 5940 5939 5938 5937 5936 5937 5935
5927 5929 5925 5926 5926 5920 5925 5925 5930 5925 5928 5925 5923 5928 5928 5928 5928 5927 5929 5929 5931 5932 5933 5934 5935 5936 5936 5937 5938 5937 5937 5937 5937 5937 5938 5939 5937 5936 5939 5936 5931 5932 5936 5937 5936 5935 5934 5934 5933
5926 5928 5920 5926 5924 5922 5929 5928 5923 5922 5923 5918 5920 5916 5925 5926 5927 5925 5926 5927 5928 5931 5932 5933 5934 5935 5935 5935 5935 5934 5935 5935 5936 5936 5933 5932 5930 5927 5926 5926 5926 5925 5928 5930 5931 5931 5929 5926 5926
5925 5925 5924 5924 5924 5925 5927 5925 5927 5921 5925 5919 5916 5891 5917 5923 5927 5923 5922 5924 5925 5927 5928 5930 5931 5932 5933 5932 5931 5931 5931 5930 5930 5928 5929 5926 5925 5925 5923 5922 5920 5920 5916 5920 5921 5922 5923 5920 5918
5926 5927 5928 5925 5923 5920 5921 5918 5926 5921 5912 5914 5912 5914 5917 5920 5920 5919 5919 5922 5922 5924 5924 5927 5927 5926 5927 5928 5929 5928 5927 5925 5924 5921 5919 5920 5919 5920 5914 5915 5914 5914 5912 5914 5915 5913 5915 5914 5913
5925 5926 5925 5924 5923 5919 5920 5917 5919 5914 5915 5912 5911 5911 5915 5913 5913 5913 5917 5920 5922 5925 5925 5922 5922 5924 5924 5924 5922 5924 5923 5920 5918 5916 5912 5912 5911 5914 5909 5908 5907 5906 5908 5908 5905 5901 5905 5907 5907
5921 5921 5920 5921 5915 5911 5910 5913 5914 5910 5910 5910 5908 5902 5897 5883 5906 5910 5911 5914 5917 5921 5922 5921 5921 5921 5920 5919 5917 5917 5916 5914 5914 5910 5906 5905 5904 5904 5905 5904 5903 5901 5902 5901 5900 5897 5897 5895 5895
5913 5917 5919 5918 5914 5911 5911 5912 5910 5910 5908 5908 5911 5905 5865 5899 5902 5905 5906 5909 5911 5912 5912 5915 5916 5917 5914 5915 5913 5909 5907 5909 5908 5906 5902 5899 5896 5897 5898 5895 5893 5896 5895 5895 5894 5890 5888 5885 5884
5917 5917 5917 5910 5909 5911 5910 5910 5909 5908 5908 5905 5907 5900 5896 5906 5905 5904 5905 5907 5908 5906 5905 5906 5909 5911 5912 5909 5906 5906 5904 5902 5901 5899 5896 5894 5891 5889 5887 5887 5887 5887 5887 5886 5882 5878 5878 5875 5874
5910 5909 5909 5910 5905 5906 5908 5906 5903 5904 5903 5903 5901 5898 5899 5904 5904 5905 5905 5905 5903 5902 5903 5901 5902 5903 5904 5903 5900 5897 5897 5896 5893 5891 5889 5886 5884 5882 5880 5879 5880 5878 5877 5873 5872 5871 5868 5863 5862
5908 5904 5907 5906 5905 5904 5905 5901 5900 5898 5896 5896 5895 5895 5896 5899 5901 5904 5900 5898 5897 5897 5897 5897 5896 5897 5895 5893 5891 5890 5889 5886 5884 5882 5880 5877 5874 5872 5871 5871 5869 5868 5867 5864 5862 5860 5856 5854 5851
5900 5901 5902 5900 5901 5901 5900 5893 5893 5892 5892 5891 5889 5887 5887 5890 5892 5893 5895 5894 5893 5893 5892 5891 5890 5888 5888 5886 5884 5882 5879 5878 5877 5874 5871 5868 5866 5864 5862 5860 5858 5856 5854 5853 5851 5849 5847 5844 5843